Home > Weather > Neu-Ulm > Past weeks

Flag for Germany Weather for the Past 2 Weeks in Neu-Ulm, Bavaria, Germany

Now
46 °F

Light rain. Partly sunny.


Feels Like: 44 °F
Forecast: 35 / 39 °F
Wind: 6 mph from Southwest

Location: Laupheim Airport

Current Time: Feb 9, 2016 at 5:33:29 PM

Latest Report: Feb 9, 2016 at 4:20 PM


Visibility: N/A

Pressure: 29.30 "Hg

Humidity: 82%

Dew point: 41 °F

Location of Neu-UlmLocation

Historic Weather in Neu-Ulm — Graph

°F

Neu-Ulm Temperature Yesterday

Maximum temperature yesterday: 52 °F (at 1:53 PM)
Minimum temperature yesterday: 37 °F (at 3:20 AM)
Average temperature yesterday: 45 °F

High & Low Weather Summary for the Past Weeks

 TemperatureHumidityPressure
High55 °F (Feb 1, 11:49 AM)100% (Jan 28, 7:20 PM)30.42 "Hg (Jan 28, 7:20 PM)
Low28 °F (Feb 6, 2:20 AM)50% (Jan 25, 4:20 PM)29.30 "Hg (Feb 9, 4:20 PM)
Average42 °F80%30.11 "Hg
* Reported Jan 25 4:20 PM — Feb 9 4:20 PM, Neu-Ulm, Weather by CustomWeather, © 2016

Note: Actual official high and low records may vary slightly from our data, if they occured in-between our weather recording intervals... More about our weather records

Advertising

Neu-Ulm Weather History for the Previous 24 Hours

 ConditionsComfort  
Time TempWeatherWind HumidityBarometerVisibility
4:20 PM
Tue, Feb 9
46 °FLight rain. Partly sunny.6 mph82%29.30 "HgN/A
3:20 PM46 °FLight rain. Partly sunny.8 mph76%29.33 "HgN/A
2:20 PM46 °FRain. Partly sunny.13 mph76%29.39 "Hg5 mi
1:20 PM50 °FLight rain. Partly sunny.8 mph62%29.39 "HgN/A
12:20 PM48 °FPartly sunny.8 mph71%29.47 "HgN/A
11:20 AM45 °FLight rain. Partly sunny.9 mph81%29.53 "HgN/A
10:20 AM45 °FLight rain. Partly sunny.8 mph81%29.59 "HgN/A
9:20 AM43 °FLight rain. Partly sunny.8 mph81%29.62 "HgN/A
8:20 AM43 °FPartly sunny.2 mph81%29.65 "HgN/A
7:20 AM43 °FPassing clouds.6 mph81%29.68 "HgN/A
6:20 AM43 °FPartly cloudy.10 mph81%29.71 "HgN/A
5:20 AM41 °FPassing clouds.9 mph87%29.74 "HgN/A
4:20 AM41 °FPassing clouds.12 mph81%29.77 "HgN/A
3:20 AM43 °FPassing clouds.17 mph76%29.77 "HgN/A
2:20 AM43 °FPartly cloudy.22 mph76%29.77 "HgN/A
1:20 AM43 °FLight rain. Passing clouds.22 mph81%29.77 "HgN/A
12:20 AM45 °FPartly cloudy.17 mph76%29.77 "HgN/A
11:20 PM
Mon, Feb 8
45 °FLight rain. Partly cloudy.23 mph81%29.77 "HgN/A
10:20 PM46 °FPassing clouds.21 mph71%29.74 "HgN/A
9:20 PM45 °FPassing clouds.21 mph81%29.74 "HgN/A
8:20 PM45 °FPassing clouds.26 mph81%29.71 "HgN/A
7:20 PM48 °FPartly cloudy.30 mph66%29.68 "HgN/A
6:57 PM48 °FPartly cloudy.26 mph66%29.68 "HgN/A
6:20 PM48 °FPassing clouds.24 mph71%29.62 "HgN/A
5:20 PM50 °FLight rain. Broken clouds.37 mph62%29.62 "HgN/A
Weather by CustomWeather, © 2016

See weather overviewHow to use our weather pages